Date String (YYYY-MM-DD hh:mm:ss) UTC,Instrument flags,Ambient pressure (hPa),Sample flow (lpm),Bypass flow (lpm),Sample temperature (°C),Ambient temperature (°C),ASC tube jacket temperature (°C),LED temperature (°C),Box temperature (°C),Sample RH (%),Span deviation,Mass concentration (μg/m³),Mass concentration (μg/m³),Mass concentration (μg/m³)
DateTimeUTC,F1_M11,P_M11,Q1_M11,Q2_M11,T1_M11,T2_M11,T3_M11,T4_M11,T5_M11,U1_M11,ZSPAN_M11,X0_M11,X2_M11,X1_M11
2022-11-30 11:00:00,,0825.5,5.01,0.00,22.0,20.5,00.0,31.0,23.7,08.5,0000.0,0009.50,0005.63,0005.29
2022-11-30 11:01:00,,0825.5,5.00,0.00,22.0,20.8,00.0,31.0,23.8,08.5,0000.0,0009.66,0005.63,0005.30
2022-11-30 11:02:00,,0825.6,4.99,0.00,22.1,21.8,00.0,31.0,24.0,08.3,0000.0,0009.77,0005.66,0005.31
2022-11-30 11:03:00,,0825.7,4.98,0.00,22.2,22.3,00.0,31.0,24.2,08.2,0000.0,0009.84,0005.72,0005.39
2022-11-30 11:04:00,,0825.9,5.02,0.00,22.3,22.1,00.0,31.0,24.2,08.1,0000.0,0009.76,0005.77,0005.46
2022-11-30 11:05:00,,0826.0,5.00,0.00,22.3,21.7,00.0,31.1,24.1,08.0,0000.0,0009.85,0005.85,0005.52
2022-11-30 11:06:00,,0825.9,5.00,0.00,22.2,21.3,00.0,31.1,24.0,08.0,0000.0,0009.92,0005.91,0005.58
2022-11-30 11:07:00,,0825.7,5.02,0.00,22.2,21.0,00.0,31.1,23.9,07.9,0000.0,0009.96,0005.94,0005.59
2022-11-30 11:08:00,,0825.4,5.00,0.00,22.2,20.8,00.0,31.1,23.9,08.0,0000.0,0009.99,0005.98,0005.63
2022-11-30 11:09:00,,0825.5,5.01,0.00,22.1,20.7,00.0,31.1,23.8,08.0,0000.0,0010.14,0006.10,0005.74
2022-11-30 11:10:00,,0825.8,5.00,0.00,22.1,20.6,00.0,31.1,23.7,08.0,0000.0,0010.31,0006.24,0005.86
2022-11-30 11:11:00,,0826.0,5.00,0.00,22.1,21.1,00.0,31.0,23.8,08.0,0000.0,0009.85,0006.30,0005.93
2022-11-30 11:12:00,,0825.9,4.98,0.00,22.2,22.0,00.0,31.0,24.1,07.9,0000.0,0009.67,0006.38,0006.01
2022-11-30 11:13:00,,0825.8,5.01,0.00,22.3,22.1,00.0,31.0,24.2,07.9,0000.0,0009.69,0006.46,0006.10
2022-11-30 11:14:00,,0825.6,5.01,0.00,22.3,21.7,00.0,31.1,24.1,07.9,0000.0,0009.73,0006.49,0006.13
2022-11-30 11:15:00,,0825.7,5.02,0.00,22.2,21.4,00.0,31.1,24.0,07.9,0000.0,0009.62,0006.44,0006.11
2022-11-30 11:16:00,,0826.1,4.98,0.00,22.2,21.1,00.0,31.1,24.0,08.0,0000.0,0009.61,0006.38,0006.08
2022-11-30 11:17:00,,0825.8,5.00,0.00,22.2,20.9,00.0,31.1,23.9,08.0,0000.0,0009.63,0006.36,0006.06
2022-11-30 11:18:00,,0825.8,5.00,0.00,22.1,20.6,00.0,31.1,23.9,08.1,0000.0,0009.60,0006.32,0006.02
2022-11-30 11:19:00,,0825.7,5.00,0.00,22.1,20.6,00.0,31.1,23.8,08.1,0000.0,0009.93,0006.28,0005.96
2022-11-30 11:20:00,,0825.9,5.01,0.00,22.2,21.5,00.0,31.0,24.0,08.2,0000.0,0010.21,0006.19,0005.84
2022-11-30 11:21:00,,0825.9,4.99,0.00,22.3,22.2,00.0,31.0,24.2,08.1,0000.0,0010.08,0006.06,0005.70
2022-11-30 11:22:00,,0825.9,5.00,0.00,22.3,22.0,00.0,31.1,24.2,08.2,0000.0,0010.06,0005.95,0005.58
2022-11-30 11:23:00,,0825.8,5.00,0.00,22.3,21.6,00.0,31.1,24.2,08.2,0000.0,0009.89,0005.81,0005.46
2022-11-30 11:24:00,,0825.8,5.01,0.00,22.3,21.3,00.0,31.1,24.1,08.2,0000.0,0010.04,0005.67,0005.32
2022-11-30 11:25:00,,0825.7,4.99,0.00,22.2,21.0,00.0,31.1,24.0,08.2,0000.0,0010.07,0005.59,0005.19
2022-11-30 11:26:00,,0825.7,5.01,0.00,22.2,20.7,00.0,31.1,23.9,08.2,0000.0,0010.01,0005.55,0005.13
2022-11-30 11:27:00,,0825.8,5.01,0.00,22.2,20.6,00.0,31.1,23.9,08.2,0000.0,0009.82,0005.52,0005.09
2022-11-30 11:28:00,,0825.9,4.98,0.00,22.1,20.4,00.0,31.1,23.8,08.2,0000.0,0009.70,0005.45,0005.03
2022-11-30 11:29:00,,0825.9,5.01,0.00,22.1,20.9,00.0,31.0,23.9,08.3,0000.0,0009.75,0005.39,0004.98
2022-11-30 11:30:00,,0825.9,5.01,0.00,22.2,21.9,00.0,31.0,24.1,08.2,0000.0,0009.80,0005.35,0004.97
2022-11-30 11:31:00,,0826.0,4.99,0.00,22.3,22.6,00.0,31.0,24.3,08.2,0000.0,0009.56,0005.32,0004.96
2022-11-30 11:32:00,,0826.3,4.98,0.00,22.4,22.4,00.0,31.1,24.3,08.2,0000.0,0009.50,0005.27,0004.94
2022-11-30 11:33:00,,0825.9,5.01,0.00,22.4,21.9,00.0,31.1,24.2,08.2,0000.0,0009.32,0005.22,0004.91
2022-11-30 11:34:00,,0826.0,5.00,0.00,22.3,21.5,00.0,31.1,24.1,08.2,0000.0,0009.33,0005.19,0004.89
2022-11-30 11:35:00,,0825.9,4.99,0.00,22.3,21.2,00.0,31.2,24.0,08.2,0000.0,0009.10,0005.17,0004.89
2022-11-30 11:36:00,,0825.8,5.01,0.00,22.2,20.9,00.0,31.2,23.9,08.0,0000.0,0009.04,0005.12,0004.88
2022-11-30 11:37:00,,0825.7,5.00,0.00,22.2,20.7,00.0,31.2,23.9,08.1,0000.0,0009.00,0005.12,0004.88
2022-11-30 11:38:00,,0826.0,5.00,0.00,22.2,20.6,00.0,31.2,23.9,08.1,0000.0,0009.01,0005.13,0004.90
2022-11-30 11:39:00,,0826.0,5.01,0.00,22.1,20.5,00.0,31.1,23.8,08.1,0000.0,0009.06,0005.15,0004.91
2022-11-30 11:40:00,,0826.0,5.00,0.00,22.1,20.7,00.0,31.1,23.8,08.0,0000.0,0009.02,0005.14,0004.87
2022-11-30 11:41:00,,0825.9,5.00,0.00,22.2,21.6,00.0,31.0,24.0,08.0,0000.0,0008.56,0005.11,0004.84
2022-11-30 11:42:00,,0825.8,5.00,0.00,22.3,22.2,00.0,31.0,24.2,07.9,0000.0,0008.50,0005.05,0004.78
2022-11-30 11:43:00,,0826.1,4.99,0.00,22.3,21.9,00.0,31.1,24.1,07.9,0000.0,0008.96,0005.00,0004.73
2022-11-30 11:44:00,,0826.1,5.00,0.00,22.3,21.5,00.0,31.1,24.1,08.0,0000.0,0008.95,0004.97,0004.70
2022-11-30 11:45:00,,0825.9,5.01,0.00,22.2,21.2,00.0,31.1,24.0,08.0,0000.0,0008.93,0004.94,0004.67
2022-11-30 11:46:00,,0826.0,4.99,0.00,22.2,20.9,00.0,31.1,23.9,07.9,0000.0,0008.99,0004.91,0004.62
2022-11-30 11:47:00,,0826.0,5.01,0.00,22.2,20.8,00.0,31.1,23.8,07.9,0000.0,0008.88,0004.85,0004.57
2022-11-30 11:48:00,,0826.0,5.01,0.00,22.1,20.5,00.0,31.1,23.7,08.0,0000.0,0008.74,0004.74,0004.47
2022-11-30 11:49:00,,0825.9,4.99,0.00,22.1,20.6,00.0,31.1,23.7,07.9,0000.0,0008.97,0004.65,0004.37
2022-11-30 11:50:00,,0825.8,5.02,0.00,22.1,21.6,00.0,31.0,23.9,07.9,0000.0,0008.96,0004.55,0004.29
2022-11-30 11:51:00,,0825.8,4.99,0.00,22.2,22.4,00.0,31.0,24.1,07.9,0000.0,0008.91,0004.52,0004.26
2022-11-30 11:52:00,,0825.9,5.00,0.00,22.3,22.5,00.0,31.1,24.2,07.9,0000.0,0008.80,0004.47,0004.23
2022-11-30 11:53:00,,0826.0,5.00,0.00,22.3,22.0,00.0,31.1,24.2,07.8,0000.0,0008.67,0004.46,0004.21
2022-11-30 11:54:00,,0826.2,5.00,0.00,22.3,21.6,00.0,31.1,24.1,07.7,0000.0,0008.25,0004.48,0004.20
2022-11-30 11:55:00,,0826.2,4.98,0.00,22.3,21.3,00.0,31.1,24.0,07.5,0000.0,0008.22,0004.43,0004.15
2022-11-30 11:56:00,,0826.1,5.00,0.00,22.2,20.9,00.0,31.2,24.0,07.5,0000.0,0008.16,0004.39,0004.11
2022-11-30 11:57:00,,0825.7,5.01,0.00,22.2,20.7,00.0,31.2,23.9,07.5,0000.0,0008.05,0004.35,0004.06
2022-11-30 11:58:00,,0825.5,4.99,0.00,22.2,20.6,00.0,31.1,23.8,07.4,0000.0,0007.85,0004.34,0004.05
2022-11-30 11:59:00,,0825.5,5.00,0.00,22.1,20.5,00.0,31.1,23.7,07.4,0000.0,0007.90,0004.38,0004.08
